User: anonymous   Login
Location: Unspecified
(0.0000°N, 0.0000°E)
Time: 07:10:07
(UTC+00:00)
Language:

Vanguard 2 Rocket - Orbit

View from above orbital plane
View from above orbital plane
View from above satellite
View from above satellite

Ground track
Ground track

The orbit data is extracted from the following two-line orbital elements,

1    12U 59001B   17176.41716330 -.00000071 +00000-0 -40360-4 0  9992
2    12 032.8959 197.2673 1667554 116.2731 261.8545 11.44151004397901
Epoch (UTC): 25 June 2017 10:00:42
Eccentricity: 0.1667554
inclination: 32.8959°
perigee height: 554 km
apogee height: 3328 km
right ascension of ascending node: 197.2673°
argument of perigee: 116.2731°
revolutions per day: 11.44151004
mean anomaly at epoch: 261.8545°
orbit number at epoch: 39790

The dashed part of the orbit path shows where the satellite is in the earth's shadow,  

DLR